Time,TemperatureF,DewpointF,PressureIn,WindDirection,WindDirectionDegrees,WindSpeedMPH,WindSpeedGustMPH,Humidity,HourlyPrecipIn,Conditions,Clouds,dailyrainin,SoftwareType,DateUTC
2014-08-27 00:01:00,75.0,71.9,29.93,East,88,0.0,0.0,90,0.00,,---,0.00,VWS V15.00,2014-08-27 04:01:00,
2014-08-27 00:06:00,74.9,71.8,29.93,East,89,0.0,0.0,90,0.00,,---,0.00,VWS V15.00,2014-08-27 04:06:00,
2014-08-27 00:11:00,74.7,71.6,29.93,East,89,0.0,0.0,90,0.00,,---,0.00,VWS V15.00,2014-08-27 04:11:00,
2014-08-27 00:16:00,74.6,71.5,29.93,East,88,0.0,0.0,90,0.00,,---,0.00,VWS V15.00,2014-08-27 04:16:00,
2014-08-27 00:21:00,74.5,71.4,29.94,East,88,0.0,0.0,90,0.00,,---,0.00,VWS V15.00,2014-08-27 04:21:00,
2014-08-27 00:26:00,74.5,71.4,29.94,East,88,0.0,0.0,90,0.00,,---,0.00,VWS V15.00,2014-08-27 04:26:00,
2014-08-27 00:31:00,74.3,71.2,29.94,East,89,0.0,0.0,90,0.00,,---,0.00,VWS V15.00,2014-08-27 04:31:00,
2014-08-27 00:36:00,74.2,71.1,29.94,East,89,0.0,0.0,90,0.00,,---,0.00,VWS V15.00,2014-08-27 04:36:00,
2014-08-27 00:41:00,74.1,71.3,29.94,East,89,0.0,0.0,91,0.00,,---,0.00,VWS V15.00,2014-08-27 04:41:00,
2014-08-27 00:46:00,74.0,71.2,29.94,East,89,0.0,0.0,91,0.00,,---,0.00,VWS V15.00,2014-08-27 04:46:00,
2014-08-27 00:51:00,73.9,71.1,29.94,East,89,0.0,0.0,91,0.00,,---,0.00,VWS V15.00,2014-08-27 04:51:00,
2014-08-27 00:56:00,73.9,71.1,29.94,East,89,0.0,0.0,91,0.00,,---,0.00,VWS V15.00,2014-08-27 04:56:00,
2014-08-27 01:01:00,73.8,71.0,29.94,East,89,0.0,0.0,91,0.00,,---,0.00,VWS V15.00,2014-08-27 05:01:00,
2014-08-27 01:06:00,73.7,70.9,29.94,East,89,0.0,0.0,91,0.00,,---,0.00,VWS V15.00,2014-08-27 05:06:00,
2014-08-27 01:11:00,73.6,70.8,29.94,East,88,0.0,0.0,91,0.00,,---,0.00,VWS V15.00,2014-08-27 05:11:00,
2014-08-27 01:16:00,73.5,71.0,29.94,East,89,0.0,0.0,92,0.00,,---,0.00,VWS V15.00,2014-08-27 05:16:00,
2014-08-27 01:21:00,73.5,71.0,29.94,East,89,0.0,0.0,92,0.00,,---,0.00,VWS V15.00,2014-08-27 05:21:00,
2014-08-27 01:26:00,73.3,70.8,29.94,East,88,0.0,0.0,92,0.00,,---,0.00,VWS V15.00,2014-08-27 05:26:00,
2014-08-27 01:31:00,73.3,70.8,29.94,East,89,0.0,0.0,92,0.00,,---,0.00,VWS V15.00,2014-08-27 05:31:00,
2014-08-27 01:36:00,73.3,70.8,29.94,East,89,0.0,0.0,92,0.00,,---,0.00,VWS V15.00,2014-08-27 05:36:00,
2014-08-27 01:41:00,73.2,70.7,29.93,East,89,0.0,0.0,92,0.00,,---,0.00,VWS V15.00,2014-08-27 05:41:00,
2014-08-27 01:46:00,73.1,70.6,29.94,East,88,0.0,0.0,92,0.00,,---,0.00,VWS V15.00,2014-08-27 05:46:00,
2014-08-27 01:51:00,72.9,70.4,29.93,East,89,0.0,0.0,92,0.00,,---,0.00,VWS V15.00,2014-08-27 05:51:00,
2014-08-27 01:56:00,72.9,70.4,29.93,East,89,0.0,0.0,92,0.00,,---,0.00,VWS V15.00,2014-08-27 05:56:00,
2014-08-27 02:01:00,72.8,70.7,29.93,East,89,0.0,0.0,93,0.00,,---,0.00,VWS V15.00,2014-08-27 06:01:00,
2014-08-27 02:06:00,72.7,70.6,29.93,East,89,0.0,0.0,93,0.00,,---,0.00,VWS V15.00,2014-08-27 06:06:00,
2014-08-27 02:11:00,72.7,70.6,29.93,East,89,0.0,0.0,93,0.00,,---,0.00,VWS V15.00,2014-08-27 06:11:00,
2014-08-27 02:16:00,72.6,70.5,29.93,East,89,0.0,0.0,93,0.00,,---,0.00,VWS V15.00,2014-08-27 06:16:00,
2014-08-27 02:21:00,72.5,70.4,29.93,East,89,0.0,0.0,93,0.00,,---,0.00,VWS V15.00,2014-08-27 06:21:00,
2014-08-27 02:26:00,72.4,70.3,29.93,East,89,0.0,0.0,93,0.00,,---,0.00,VWS V15.00,2014-08-27 06:26:00,
2014-08-27 02:31:00,72.4,70.3,29.93,East,88,0.0,0.0,93,0.00,,---,0.00,VWS V15.00,2014-08-27 06:31:00,
2014-08-27 02:36:00,72.3,70.2,29.93,East,89,0.0,0.0,93,0.00,,---,0.00,VWS V15.00,2014-08-27 06:36:00,
2014-08-27 02:41:00,72.2,70.1,29.93,East,89,0.0,0.0,93,0.00,,---,0.00,VWS V15.00,2014-08-27 06:41:00,
2014-08-27 02:46:00,72.1,70.0,29.93,East,89,0.0,0.0,93,0.00,,---,0.00,VWS V15.00,2014-08-27 06:46:00,
2014-08-27 02:51:00,72.0,69.9,29.93,East,89,0.0,0.0,93,0.00,,---,0.00,VWS V15.00,2014-08-27 06:51:00,
2014-08-27 02:56:00,72.0,69.9,29.93,East,89,0.0,0.0,93,0.00,,---,0.00,VWS V15.00,2014-08-27 06:56:00,
2014-08-27 03:01:00,71.9,69.8,29.93,East,89,0.0,0.0,93,0.00,,---,0.00,VWS V15.00,2014-08-27 07:01:00,
2014-08-27 03:06:00,71.9,69.8,29.93,East,89,0.0,0.0,93,0.00,,---,0.00,VWS V15.00,2014-08-27 07:06:00,
2014-08-27 03:11:00,71.7,69.9,29.93,East,89,0.0,0.0,94,0.00,,---,0.00,VWS V15.00,2014-08-27 07:11:00,
2014-08-27 03:16:00,71.7,69.9,29.93,East,88,0.0,0.0,94,0.00,,---,0.00,VWS V15.00,2014-08-27 07:16:00,
2014-08-27 03:21:00,71.6,69.8,29.93,East,89,0.0,0.0,94,0.00,,---,0.00,VWS V15.00,2014-08-27 07:21:00,
2014-08-27 03:26:00,71.6,69.8,29.93,East,88,0.0,0.0,94,0.00,,---,0.00,VWS V15.00,2014-08-27 07:26:00,
2014-08-27 03:31:00,71.5,69.7,29.93,East,89,0.0,0.0,94,0.00,,---,0.00,VWS V15.00,2014-08-27 07:31:00,
2014-08-27 03:36:00,71.4,69.6,29.92,East,89,0.0,0.0,94,0.00,,---,0.00,VWS V15.00,2014-08-27 07:36:00,
2014-08-27 03:41:00,71.5,69.7,29.92,East,88,0.0,0.0,94,0.00,,---,0.00,VWS V15.00,2014-08-27 07:41:00,
2014-08-27 03:46:00,71.5,69.7,29.93,East,88,0.0,0.0,94,0.00,,---,0.00,VWS V15.00,2014-08-27 07:46:00,
2014-08-27 03:51:00,71.5,69.7,29.92,East,88,0.0,0.0,94,0.00,,---,0.00,VWS V15.00,2014-08-27 07:51:00,
2014-08-27 03:56:00,71.5,69.7,29.93,East,88,0.0,0.0,94,0.00,,---,0.00,VWS V15.00,2014-08-27 07:56:00,
2014-08-27 04:01:00,71.5,69.7,29.92,East,88,0.0,0.0,94,0.00,,---,0.00,VWS V15.00,2014-08-27 08:01:00,
2014-08-27 04:06:00,71.1,69.6,29.92,East,89,0.0,0.0,95,0.00,,---,0.00,VWS V15.00,2014-08-27 08:06:00,
2014-08-27 04:11:00,71.1,69.6,29.92,East,89,0.0,0.0,95,0.00,,---,0.00,VWS V15.00,2014-08-27 08:11:00,
2014-08-27 04:16:00,71.1,69.6,29.93,East,89,0.0,0.0,95,0.00,,---,0.00,VWS V15.00,2014-08-27 08:16:00,
2014-08-27 04:21:00,71.1,69.6,29.93,East,88,0.0,0.0,95,0.00,,---,0.00,VWS V15.00,2014-08-27 08:21:00,
2014-08-27 04:26:00,71.0,69.5,29.93,East,89,0.0,0.0,95,0.00,,---,0.00,VWS V15.00,2014-08-27 08:26:00,
2014-08-27 04:31:00,71.0,69.5,29.93,East,88,0.0,0.0,95,0.00,,---,0.00,VWS V15.00,2014-08-27 08:31:00,
2014-08-27 04:36:00,70.9,69.4,29.93,East,89,0.0,0.0,95,0.00,,---,0.00,VWS V15.00,2014-08-27 08:36:00,
2014-08-27 04:41:00,70.9,69.4,29.93,East,89,0.0,0.0,95,0.00,,---,0.00,VWS V15.00,2014-08-27 08:41:00,
2014-08-27 04:46:00,70.9,69.4,29.93,East,89,0.0,0.0,95,0.00,,---,0.00,VWS V15.00,2014-08-27 08:46:00,
2014-08-27 04:51:00,70.9,69.4,29.92,East,89,0.0,0.0,95,0.00,,---,0.00,VWS V15.00,2014-08-27 08:51:00,
2014-08-27 04:56:00,70.8,69.3,29.92,East,89,0.0,0.0,95,0.00,,---,0.00,VWS V15.00,2014-08-27 08:56:00,
2014-08-27 05:01:00,70.7,69.2,29.92,East,89,0.0,0.0,95,0.00,,---,0.00,VWS V15.00,2014-08-27 09:01:00,
2014-08-27 05:06:00,70.7,69.2,29.92,East,88,0.0,0.0,95,0.00,,---,0.00,VWS V15.00,2014-08-27 09:06:00,
2014-08-27 05:11:00,70.7,69.2,29.92,East,89,0.0,0.0,95,0.00,,---,0.00,VWS V15.00,2014-08-27 09:11:00,
2014-08-27 05:16:00,70.8,69.3,29.92,East,89,0.0,0.0,95,0.00,,---,0.00,VWS V15.00,2014-08-27 09:16:00,
2014-08-27 05:21:00,70.8,69.3,29.92,East,89,0.0,0.0,95,0.00,,---,0.00,VWS V15.00,2014-08-27 09:21:00,
2014-08-27 05:26:00,70.9,69.7,29.92,East,89,0.0,0.0,96,0.00,,---,0.00,VWS V15.00,2014-08-27 09:26:00,
2014-08-27 05:31:00,70.8,69.6,29.92,East,89,0.0,0.0,96,0.00,,---,0.00,VWS V15.00,2014-08-27 09:31:00,